Location: Risskov
(56.1972°N, 10.2480°E)
Time: 13:25:05
(UTC+00:00)

Cosmos 1782 - Pass Details

Date: 05 July 2020
Orbit: 536 x 553 km, 82.5° (Epoch: 06 August)

Event Time Altitude Azimuth Distance (km) Brightness Sun altitude
Rises 23:49:41 0° 343° (NNW) 2,708 7.7 -11.0°
Reaches altitude 10° 23:51:56 10° 337° (NNW) 1,810 6.5 -10.9°
Maximum altitude 23:55:41 42° 266° (W) 781 3.5 -10.9°
Enters shadow 23:58:35 15° 200° (SSW) 1,483 4.4 -10.8°
